Estación de San José

Ultimos registro cada 15 minutos 46
Estación Fecha / Hora Temperatura Humedad Lluvia Velocidad Dirección Radiación Presion
46 San José 02-05-2026 11:15 6,4 95 0 0 208 172 1021,3
45 San José 02-05-2026 11:00 6,4 95 0 0 132 169 1021,3
44 San José 02-05-2026 10:45 6,1 95 0 0 132 135 1021,4
43 San José 02-05-2026 10:30 5,9 95 0 0 135 137 1021,2
42 San José 02-05-2026 10:15 5,8 95 0 0 135 132 1021,7
41 San José 02-05-2026 10:00 5,7 95 0 0 135 128 1021,9
40 San José 02-05-2026 09:45 5,7 95 0 0 133 91 1021,8
39 San José 02-05-2026 09:30 5,6 95 0 0 241 127 1022,1
38 San José 02-05-2026 09:15 5,6 95 0 0 214 72 1021,8
37 San José 02-05-2026 09:00 5,5 95 0 0 151 69 1021,8
36 San José 02-05-2026 08:45 5,4 95 0 0 151 56 1021,9
35 San José 02-05-2026 08:30 5,4 95 0 0 151 44 1021,8
34 San José 02-05-2026 08:15 5,5 95 0 0 151 26 1022
33 San José 02-05-2026 08:00 5,4 95 0 0 161 26 1022
32 San José 02-05-2026 07:45 5,6 95 0 0 160 9 1021,8
31 San José 02-05-2026 07:30 5,7 95 0 0 141 0 1021,6
30 San José 02-05-2026 07:15 5,8 95 0 0 116 0 1021,7
29 San José 02-05-2026 07:00 5,8 95 0,2 0 127 0 1021,6
28 San José 02-05-2026 06:45 5,9 95 0 0 127 0 1021,5
27 San José 02-05-2026 06:30 6 95 0 0 127 0 1021,6
26 San José 02-05-2026 06:15 6,1 95 0 0 127 0 1021,6
25 San José 02-05-2026 06:00 6,1 95 0 0 127 0 1021,6
24 San José 02-05-2026 05:45 6,1 95 0 0 127 0 1021,7
23 San José 02-05-2026 05:30 6,1 95 0 0 127 0 1021,7
22 San José 02-05-2026 05:15 6,2 95 0 0 134 0 1021,8
21 San José 02-05-2026 05:00 6,3 95 0 0 134 0 1021,7
20 San José 02-05-2026 04:45 6,4 95 0 0 134 0 1022
19 San José 02-05-2026 04:30 6,3 95 0 0 139 0 1022
18 San José 02-05-2026 04:15 6 95 0 0 139 0 1022,2
17 San José 02-05-2026 04:00 5,5 95 0 0 139 0 1022,4
16 San José 02-05-2026 03:45 5,3 94 0 0 139 0 1022,5
15 San José 02-05-2026 03:30 5,4 94 0 0 139 0 1022,7
14 San José 02-05-2026 03:15 5,7 94 0 0 139 0 1022,8
13 San José 02-05-2026 03:00 5,8 95 0 0 139 0 1023,1
12 San José 02-05-2026 02:45 5,4 94 0 0 139 0 1023,1
11 San José 02-05-2026 02:30 5,2 94 0 0 139 0 1023,2
10 San José 02-05-2026 02:15 5,4 93 0 0 139 0 1023
9 San José 02-05-2026 02:00 6 94 0 0 139 0 1023,2
8 San José 02-05-2026 01:45 6,3 94 0 0 139 0 1023,3
7 San José 02-05-2026 01:30 6,4 94 0 0 139 0 1023,3
6 San José 02-05-2026 01:15 6,4 93 0 0 139 0 1023,6
5 San José 02-05-2026 01:00 7,1 94 0 0 139 0 1023,8
4 San José 02-05-2026 00:45 7,2 95 0 0 139 0 1024
3 San José 02-05-2026 00:30 6,9 94 0 0 139 0 1024,3
2 San José 02-05-2026 00:15 7 95 0 0 139 0 1024,4
1 San José 02-05-2026 00:00 6,8 95 0 0 139 0 1024,5